CW9849 Weather Reports


Display with metric or nautical units.
time (UTC)temp
F
wind
direction
speed
MPH
gust
MPH
rain 1hr
in
rain 24hr
in
rain mn
in
humidity
%
barometer
mb
20260906164531 70 207 8.0 13.0 0.00 0.00 0.00 81 1017.4
20260906163030 71 227 9.0 13.0 0.00 0.00 0.00 78 1017.3
20260906161529 73 218 8.0 12.0 0.00 0.00 0.00 76 1017.0
20260906160033 73 198 7.0 11.0 0.00 0.00 0.00 75 1017.0
20260906154532 73 222 8.0 13.0 0.00 0.00 0.00 75 1017.1
20260906153035 75 202 8.0 12.0 0.00 0.00 0.00 72 1017.1
20260906151533 77 176 8.0 14.0 0.00 0.00 0.00 69 1017.3
20260906150026 77 202 8.0 14.0 0.00 0.00 0.00 68 1017.2
20260906144523 77 216 9.0 15.0 0.00 0.00 0.00 70 1017.3
20260906143034 77 186 10.0 15.0 0.00 0.00 0.00 67 1017.4
20260906141521 77 191 10.0 16.0 0.00 0.00 0.00 67 1017.4
20260906140025 77 184 8.0 13.0 0.00 0.00 0.00 69 1017.5
20260906134520 77 187 9.0 14.0 0.00 0.00 0.00 68 1017.5
20260906133024 77 161 10.0 15.0 0.00 0.00 0.00 68 1017.7
20260906131519 78 177 9.0 13.0 0.00 0.00 0.00 66 1017.7
20260906130013 79 181 8.0 15.0 0.00 0.00 0.00 66 1017.9
20260906124509 79 181 9.0 17.0 0.00 0.00 0.00 66 1018.2
20260906123015 78 183 11.0 16.0 0.00 0.00 0.00 67 1018.3
20260906121503 77 190 12.0 18.0 0.00 0.00 0.00 67 1018.5
20260906120159 76 193 10.0 15.0 0.00 0.00 0.00 69 1018.5
20260906114556 74 174 10.0 16.0 0.00 0.00 0.00 70 1018.5
20260906113054 74 175 9.0 16.0 0.00 0.00 0.00 69 1018.5
20260906111553 74 173 9.0 16.0 0.00 0.00 0.00 69 1018.6
20260906110055 74 123 9.0 18.0 0.00 0.00 0.00 70 1018.8
20260906104545 72 172 9.0 14.0 0.00 0.00 0.00 72 1018.8
20260906103058 71 144 11.0 18.0 0.00 0.00 0.00 73 1018.6
20260906101540 70 140 11.0 18.0 0.00 0.00 0.00 74 1018.9
20260906100038 70 151 11.0 17.0 0.00 0.00 0.00 73 1018.9
20260906094537 71 139 10.0 15.0 0.00 0.00 0.00 74 1019.0
20260906093038 70 157 11.0 17.0 0.00 0.00 0.00 75 1018.9
20260906091529 70 146 9.0 17.0 0.00 0.00 0.00 76 1019.1
20260906090041 68 140 10.0 17.0 0.00 0.00 0.00 77 1019.2
20260906084526 68 157 9.0 16.0 0.00 0.00 0.00 77 1019.3
20260906083029 69 137 10.0 17.0 0.00 0.00 0.00 76 1019.3
20260906081519 69 151 9.0 15.0 0.00 0.00 0.00 76 1019.5
20260906080014 68 146 10.0 17.0 0.00 0.00 0.00 78 1019.6
20260906074510 67 148 10.0 18.0 0.00 0.00 0.00 80 1019.8
20260906073006 66 155 10.0 15.0 0.00 0.00 0.00 81 1019.8
20260906071601 64 161 9.0 16.0 0.00 0.00 0.00 84 1020.1
20260906070058 64 153 8.0 17.0 0.00 0.00 0.00 85 1019.9
20260906064556 63 160 9.0 19.0 0.00 0.00 0.00 85 1019.8
20260906063054 63 98 10.0 21.0 0.00 0.00 0.00 85 1019.6
20260906061653 63 136 12.0 22.0 0.00 0.00 0.00 85 1019.5
20260906060047 63 149 13.0 23.0 0.00 0.00 0.00 85 1019.6
20260906054546 63 158 13.0 21.0 0.00 0.00 0.00 84 1019.5
20260906053044 63 152 8.0 19.0 0.00 0.00 0.00 83 1019.6
20260906051555 63 135 11.0 18.0 0.00 0.00 0.00 82 1019.7
20260906050046 63 120 8.0 15.0 0.00 0.00 0.00 83 1019.7
20260906044547 63 129 7.0 18.0 0.00 0.00 0.00 83 1019.6
20260906043050 63 120 9.0 16.0 0.00 0.00 0.00 83 1019.7
20260906041539 63 153 8.0 18.0 0.00 0.00 0.00 84 1019.9
20260906040039 63 96 9.0 17.0 0.00 0.00 0.00 84 1019.9
20260906034539 62 98 9.0 17.0 0.00 0.00 0.00 84 1020.4
20260906033033 62 115 8.0 17.0 0.00 0.00 0.00 84 1020.4
20260906031538 62 112 9.0 19.0 0.00 0.00 0.00 84 1020.7
20260906030029 62 102 8.0 16.0 0.00 0.00 0.00 85 1021.0
20260906024527 62 105 8.0 20.0 0.00 0.00 0.00 84 1021.2
20260906023024 62 139 8.0 19.0 0.00 0.00 0.00 84 1021.7
20260906021523 62 136 10.0 23.0 0.00 0.00 0.00 83 1022.2
20260906020022 62 146 10.0 18.0 0.00 0.00 0.00 83 1022.6
20260906014526 62 140 10.0 19.0 0.00 0.00 0.00 83 1022.9
20260906013017 62 156 10.0 17.0 0.00 0.00 0.00 82 1023.1
20260906011513 62 143 10.0 17.0 0.00 0.00 0.00 82 1023.4
20260906010011 62 133 10.0 16.0 0.00 0.00 0.00 83 1023.5
20260906004507 62 136 9.0 16.0 0.00 0.00 0.00 84 1023.7
20260906003004 62 171 8.0 14.0 0.00 0.00 0.00 83 1024.0
20260906001501 62 168 8.0 16.0 0.00 0.00 0.00 83 1024.3
20260905234620 62 156 8.0 17.0 0.00 0.00 0.00 81 1024.6
20260905233056 62 160 9.0 14.0 0.00 0.00 0.00 81 1024.7
20260905231555 63 173 8.0 18.0 0.00 0.00 0.00 81 1024.6
20260905224552 62 161 10.0 16.0 0.00 0.00 0.00 82 1025.0
20260905223053 62 158 8.0 16.0 0.00 0.00 0.00 83 1024.8
20260905221554 62 147 9.0 17.0 0.00 0.00 0.00 82 1024.8
20260905220101 63 158 8.0 14.0 0.00 0.00 0.00 83 1024.7
20260905214549 63 142 6.0 14.0 0.00 0.00 0.00 83 1024.6
20260905213048 63 146 9.0 15.0 0.00 0.00 0.00 83 1024.8
20260905211547 63 152 8.0 13.0 0.00 0.00 0.00 84 1024.9
20260905210057 63 138 9.0 14.0 0.00 0.00 0.00 84 1025.1
20260905204553 63 160 7.0 12.0 0.00 0.00 0.00 84 1025.1
20260905203102 63 139 7.0 13.0 0.00 0.00 0.00 84 1025.2
20260905201545 63 131 8.0 12.0 0.00 0.00 0.00 84 1025.2
20260905200045 63 159 8.0 13.0 0.00 0.00 0.00 84 1025.1
20260905194546 63 193 7.0 12.0 0.00 0.00 0.00 84 1025.2
20260905193044 63 146 7.0 11.0 0.00 0.00 0.00 84 1025.2
20260905191543 63 174 8.0 12.0 0.00 0.00 0.00 83 1025.2
20260905190044 64 144 7.0 12.0 0.00 0.00 0.00 82 1025.4
20260905184546 64 146 5.0 10.0 0.00 0.00 0.00 81 1025.3
20260905183041 64 162 6.0 12.0 0.00 0.00 0.00 79 1025.1
20260905181540 64 154 6.0 12.0 0.00 0.00 0.00 78 1025.3
20260905180042 65 166 6.0 11.0 0.00 0.00 0.00 78 1025.4
20260905174539 65 144 6.0 11.0 0.00 0.00 0.00 77 1025.2
20260905173039 65 163 6.0 11.0 0.00 0.00 0.00 77 1025.2
20260905171548 66 156 6.0 12.0 0.00 0.00 0.00 75 1025.4
20260905170036 66 155 8.0 13.0 0.00 0.00 0.00 74 1025.3